Regional Weather Roundup
Issued by NWS

Home | Current Version | Previous Version | Text Only | Print | Product List | Glossary On
Versions: 1 2 3 4 5 6 7 8 9 10 11 12 13 14 15 16 17 18 19 20 21 22 23 24 25 26 27 28 29 30 31 32 33 34 35 36 37 38 39 40 41 42 43 44 45 46 47 48 49 50
000
ASUS42 KKEY 180510
RWRKEY

FLORIDA REGIONAL WEATHER ROUNDUP FOR THE FLORIDA KEYS
NATIONAL WEATHER SERVICE KEY WEST FLORIDA
1200 AM EST THU DEC 18 2014

...SOUTH FLORIDA AND THE KEYS...

CITY           SKY/WX    TMP DP  RH WIND       PRES   REMARKS
FORT MYERS     MOCLDY    63  62  97 N6        30.17S
SW REGIONAL AP CLOUDY    61  58  90 CALM      30.17S
NAPLES         MOCLDY    65  61  87 NW6       30.17R
MIAMI          CLEAR     65  55  70 W5        30.16S
WEST KENDALL   CLEAR     58  55  90 W3        30.16S
HOMESTEAD      CLEAR     62  54  75 W2        30.16S
MARATHON       PTCLDY    64  62  93 N5        30.15S
BOCA CHICA NAS CLEAR     63  60  90 NE3       30.15F
KEY WEST INTL  CLEAR     65  62  90 NE5       30.16F

...INTERNATIONAL WEATHER...

CITY           SKY/WX    TMP DP  RH WIND       PRES   REMARKS
NASSAU BAHAMAS   N/A     63  57  82 CALM      30.16F
CANCUN MEXICO  PTCLDY    68  61  77 N2        30.11F
COZUMEL MEXICO PTCLDY    59  59 100 CALM      30.11F

ADJACENT COASTAL WATERS...

STATION/POSITION TIME  SKY/WX   TEMP    WIND        PRES    WAVE
                                AIR SEA DIR/SP/G            HT/PER
                 (UTC)          (F)     (DEG/KT/KT) (MB)    (FT/S)
PULASKI SHOAL LI 0400            71     100/  3/  4 1021.2S
SAND KEY         0441            71      40/  7/  8 1021.1F
SOMBRERO KEY     0500            70     360/  8/  9 1021.7F
LONG KEY         0400            68 68  360/  4/  5 1021.9F
MOLASSES REEF    0500            70 77  350/  7/  7 1020.8F
FOWEY ROCKS      NOT AVBL
Buoy 42080       NOT AVBL

$$


USA.gov is the U.S. government's official web portal to all federal, state and local government web resources and services.